Regional Weather Roundup
Issued by NWS Cleveland, OH

Home | Current Version | Previous Version | Text Only | Print | Product List | Glossary Off
Versions: 1 2 3 4 5 6 7 8 9 10 11 12 13 14 15 16 17 18 19 20 21 22 23 24 25 26 27 28 29 30 31 32 33 34 35 36 37 38 39 40 41 42 43 44 45 46 47 48 49 50

000
ASUS41 KCLE 280010
RWRCLE
OHIO REGIONAL WEATHER ROUNDUP
NATIONAL WEATHER SERVICE CLEVELAND, OH
800 PM EDT WED JUL 27 2016

NOTE: "FAIR" INDICATES FEW OR NO CLOUDS BELOW 12,000 FEET WITH NO
SIGNIFICANT WEATHER AND/OR OBSTRUCTIONS TO VISIBILITY.

OHZ001>008-015>018-024>027-034-035-043-044-280100-
   NORTHWEST OHIO

CITY           SKY/WX    TMP DP  RH WIND       PRES   REMARKS
DEFIANCE       CLEAR     87  64  46 CALM      29.92S
FINDLAY        CLEAR     88  57  34 NW5       29.92S
TOLEDO EXPRESS CLEAR     85  63  47 CALM      29.92F
TOLEDO EXEC    CLEAR     85  65  51 E5        29.93F
LIMA           PTCLDY    83  69  62 CALM      29.93F
$$

OHZ009>014-019>023-028>033-038-089-280100-
   NORTHEAST OHIO

CITY           SKY/WX    TMP DP  RH WIND       PRES   REMARKS
CLE-HOPKINS    PTCLDY    85  56  37 N7        29.96S
CLE-LAKEFRONT  CLEAR     81  67  62 NE7       29.93S
CUY CO. ARPT   CLEAR    N/A N/A N/A E7        29.96S
LORAIN-ELYRIA  CLEAR     81  60  48 NE6       29.95S
ASHTABULA      CLEAR     79  63  57 CALM      29.97S
AKRON-CANTON   PTCLDY    87  58  37 CALM      29.95S
WOOSTER        CLEAR     83  64  52 N6        29.95R
MANSFIELD      MOCLDY    86  58  38 NW5       29.96S
YOUNGSTOWN     MOCLDY    84  62  47 VRB5      29.96R
$$

OHZ042-051>053-060>062-070>072-077>081-280100-
  SOUTHWEST OHIO

CITY           SKY/WX    TMP DP  RH WIND       PRES   REMARKS
CINC-COVINGTON CLOUDY    84  73  69 SW5       29.93F HX  90
CINC-LUNKEN    CLOUDY    84  75  74 S6        29.91F HX  92
HAMILTON       PTCLDY    86  69  56 NW5       29.93F HX  90
DAYTON         PTCLDY    84  64  50 W6        29.94F
WRIGHT-PAT AFB PTCLDY    86  65  50 W5        29.92F
DAYTON GENERAL CLOUDY    87  62  43 W7        29.93F
WILMINGTON     PTCLDY    84  74  71 S5        29.93F HX  91
$$

OHZ036-037-039>041-045>050-054>059-063>069-073>076-082>088-280100-
  CENTRAL AND SOUTHEAST OHIO

CITY           SKY/WX    TMP DP  RH WIND       PRES   REMARKS
COLUMBUS       MOCLDY    85  65  51 E3        29.92S
OSU AIRPORT    CLOUDY    86  68  54 N5        29.93S
BOLTON FIELD   CLEAR     84  73  67 SW3       29.94  HX  90
RICKENBACK AFB CLEAR     86  70  58 SW5       29.92F HX  90
NEWARK         CLEAR     84  69  60 W5        29.93S
MARION         CLEAR     85  61  44 W3        29.95R
LANCASTER      CLEAR     84  72  67 SW3       29.93F
ZANESVILLE     CLEAR     88  67  49 W3        29.94R HX  91
NEW PHILLY     CLEAR     91  58  32 W6        29.94R HX  90
$$



USA.gov is the U.S. government's official web portal to all federal, state and local government web resources and services.